Beaufort, SC

9:20 PM EST on December 03, 2016 (GMT -0500)
Beaufort Marine Corps Air Station

Weather History for KNBC - October, 2012

Change the Weather History Date:

Monday, October 15, 2012

  Actual Average Record
Temperature  
Mean Temperature 74 °F -  
Max Temperature 84 °F 78 °F 88 °F (1943)
Min Temperature 64 °F 59 °F 41 °F (1955)
Cooling Degree Days 9    
Growing Degree Days 24 (Base 50)    
Moisture  
Dew Point 66 °F    
Average Humidity 78    
Maximum Humidity 97    
Minimum Humidity 53    
Precipitation  
Precipitation 0.00 in - - ()
Sea Level Pressure  
Sea Level Pressure 29.90 in    
Wind  
Wind Speed 4 mph (WSW)    
Max Wind Speed 14 mph    
Max Gust Speed 20 mph    
Visibility 10 miles    
Events Fog , Thunderstorm    
Averages and records for this station are not official NWS values.
T = Trace of Precipitation, MM = Missing Value Source: NWS Daily Summary

Daily Weather History Graph

Daily Weather History Graph

Search for Another Location

Airport or City:

Trip Planner

Search our weather history database for the weather conditions in past years. The results will help you decide how hot, cold, wet, or windy it might be!

Date:

Astronomy

Oct. 15, 2012 Rise Set
Actual Time 7:27 AM EDT 6:49 PM EDT
Civil Twilight 7:02 AM EDT 7:14 PM EDT
Nautical Twilight 6:33 AM EDT 7:42 PM EDT
Astronomical Twilight 6:05 AM EDT 8:11 PM EDT
Moon 7:32 AM EDT (10/15) 6:52 PM EDT (10/15)
Length of Visible Light 12h 11m
Length of Day
11h 22m
New Moon, 0% of the Moon is Illuminated
Oct 15
New Moon
Oct 21
First Quarter
Oct 29
Full
Nov 6
Last Quarter
Nov 13
New

Hourly Weather History & Observations

Time (EDT) Temp. Heat Index Dew Point Humidity Pressure Visibility Wind Dir Wind Speed Gust Speed Precip Events Conditions
12:56 AM 66.9 °F - 64.0 °F 90% 30.03 in 10.0 mi Calm Calm - N/A   Clear
1:56 AM 66.9 °F - 64.0 °F 90% 30.01 in 10.0 mi Calm Calm - N/A   Clear
2:56 AM 64.9 °F - 63.0 °F 93% 29.99 in 10.0 mi Calm Calm - N/A   Clear
3:56 AM 66.0 °F - 63.0 °F 90% 29.96 in 10.0 mi Calm Calm - N/A   Clear
4:56 AM 66.0 °F - 63.0 °F 90% 29.96 in 10.0 mi Calm Calm - N/A   Scattered Clouds
5:56 AM 66.9 °F - 64.0 °F 90% 29.96 in 10.0 mi Calm Calm - N/A   Overcast
6:56 AM 66.0 °F - 63.0 °F 90% 29.96 in 10.0 mi Calm Calm - N/A   Clear
7:56 AM 64.9 °F - 64.0 °F 97% 29.96 in 4.0 mi Calm Calm - N/A Fog Mostly Cloudy
8:56 AM 68.0 °F - 66.0 °F 93% 29.97 in 10.0 mi Calm Calm - N/A   Mostly Cloudy
9:56 AM 72.0 °F - 68.0 °F 87% 29.98 in 10.0 mi Calm Calm - N/A   Overcast
10:56 AM 75.9 °F - 68.0 °F 76% 29.96 in 10.0 mi SW 9.2 mph - N/A   Mostly Cloudy
11:56 AM 80.1 °F 82.9 °F 69.1 °F 69% 29.94 in 10.0 mi SSW 9.2 mph - N/A   Mostly Cloudy
12:16 PM 78.8 °F - 68.0 °F 69% 29.92 in 10.0 mi SW 11.5 mph - N/A   Mostly Cloudy
12:31 PM 80.6 °F 83.9 °F 69.8 °F 70% 29.91 in 10.0 mi SW 11.5 mph - N/A   Mostly Cloudy
12:56 PM 79.0 °F - 66.9 °F 66% 29.90 in 10.0 mi SW 12.7 mph 19.6 mph N/A   Mostly Cloudy
1:56 PM 82.0 °F 84.5 °F 66.9 °F 60% 29.86 in 10.0 mi WSW 13.8 mph 19.6 mph N/A   Mostly Cloudy
2:56 PM 82.0 °F 84.1 °F 66.0 °F 58% 29.83 in 10.0 mi WSW 11.5 mph 17.3 mph N/A   Mostly Cloudy
3:02 PM 82.4 °F 84.6 °F 66.2 °F 58% 29.82 in 10.0 mi SW 9.2 mph - N/A   Mostly Cloudy
3:15 PM 84.2 °F 87.3 °F 68.0 °F 58% 29.82 in 10.0 mi SW 8.1 mph - N/A Thunderstorm Thunderstorm
3:56 PM 82.9 °F 85.0 °F 66.0 °F 56% 29.81 in 10.0 mi WSW 11.5 mph - N/A   Mostly Cloudy
4:56 PM 82.9 °F 84.4 °F 64.0 °F 53% 29.80 in 10.0 mi West 9.2 mph - N/A   Mostly Cloudy
5:56 PM 73.9 °F - 69.1 °F 85% 29.80 in 10.0 mi WNW 6.9 mph - 0.00 in   Overcast
6:56 PM 73.0 °F - 69.1 °F 87% 29.80 in 10.0 mi West 3.5 mph - 0.00 in   Scattered Clouds
7:56 PM 73.0 °F - 69.1 °F 87% 29.81 in 10.0 mi West 3.5 mph - N/A   Overcast
8:56 PM 71.1 °F - 68.0 °F 90% 29.83 in 10.0 mi West 6.9 mph - N/A   Clear
9:56 PM 71.1 °F - 66.9 °F 87% 29.84 in 10.0 mi NW 5.8 mph - N/A   Clear
10:56 PM 69.1 °F - 57.9 °F 68% 29.86 in 10.0 mi NW 9.2 mph - N/A   Clear
11:56 PM 66.9 °F - 55.0 °F 66% 29.86 in 10.0 mi NNW 6.9 mph - N/A   Clear